,,PA_Meas_PMT16A,,PR_Meas_QMR101_102,,RH_Meas_QMH101,,SR_Meas_QMS101,,TA_Meas_QMH101,,GenWind,,GenWind,
time,status,PA,status,PR,status,RH,status,SR,status,TA,status,DirAvg,status,SpdAvg,
2012-01-09, 00:00:05,VALID,918.997,VALID,0,VALID,86.5868,VALID,0,VALID,20.9316,VALID,142,VALID,0.842188,
2012-01-09, 00:01:05,VALID,918.956,VALID,0,VALID,86.4648,VALID,0,VALID,20.9316,VALID,112,VALID,1.64336,
2012-01-09, 00:02:05,VALID,918.966,VALID,0,VALID,86.4724,VALID,0,VALID,20.9511,VALID,143,VALID,0.782422,
2012-01-09, 00:03:05,VALID,918.951,VALID,0,VALID,86.5944,VALID,0,VALID,20.912,VALID,143,VALID,0.780078,
2012-01-09, 00:04:05,VALID,918.916,VALID,0,VALID,86.7545,VALID,0,VALID,20.8925,VALID,143,VALID,0.959766,
2012-01-09, 00:05:05,VALID,918.893,VALID,0,VALID,87.1051,VALID,0,VALID,20.834,VALID,143,VALID,0.664453,
2012-01-09, 00:06:05,VALID,918.893,VALID,0,VALID,87.311,VALID,0,VALID,20.795,VALID,99,VALID,0.524219,
2012-01-09, 00:07:05,VALID,918.862,VALID,0,VALID,87.4406,VALID,0,VALID,20.7544,VALID,116,VALID,1.19727,
2012-01-09, 00:08:05,VALID,918.863,VALID,0,VALID,87.5092,VALID,0,VALID,20.756,VALID,132,VALID,1.55273,
2012-01-09, 00:09:05,VALID,918.835,VALID,0,VALID,87.4177,VALID,0,VALID,20.7739,VALID,133,VALID,1.08086,
2012-01-09, 00:10:05,VALID,918.846,VALID,0,VALID,87.433,VALID,0,VALID,20.7739,VALID,104,VALID,1.41641,
2012-01-09, 00:11:05,VALID,918.827,VALID,0,VALID,87.837,VALID,0,VALID,20.6959,VALID,98,VALID,0.932031,
2012-01-09, 00:12:05,VALID,918.851,VALID,0,VALID,88.2487,VALID,0,VALID,20.639,VALID,98,VALID,1.17969,
2012-01-09, 00:13:05,VALID,918.85,VALID,0,VALID,88.5536,VALID,0,VALID,20.5999,VALID,98,VALID,1.21133,
2012-01-09, 00:14:05,VALID,918.849,VALID,0,VALID,88.7442,VALID,0,VALID,20.5609,VALID,98,VALID,1.05703,
2012-01-09, 00:15:05,VALID,918.866,VALID,0,VALID,88.8128,VALID,0,VALID,20.5609,VALID,98,VALID,1.18711,
2012-01-09, 00:16:05,VALID,918.81,VALID,0,VALID,88.8128,VALID,0,VALID,20.5609,VALID,98,VALID,1.12422,
2012-01-09, 00:17:05,VALID,918.796,VALID,0,VALID,88.7747,VALID,0,VALID,20.5804,VALID,98,VALID,1.12852,
2012-01-09, 00:18:05,VALID,918.813,VALID,0,VALID,88.5993,VALID,0,VALID,20.5804,VALID,98,VALID,1.37852,
2012-01-09, 00:19:05,VALID,918.795,VALID,0,VALID,88.4392,VALID,0,VALID,20.5984,VALID,98,VALID,1.1293,
2012-01-09, 00:20:05,VALID,918.827,VALID,0,VALID,88.3478,VALID,0,VALID,20.639,VALID,98,VALID,1.0332,
2012-01-09, 00:21:05,VALID,918.814,VALID,0,VALID,88.2715,VALID,0,VALID,20.6585,VALID,98,VALID,1.05977,
2012-01-09, 00:22:05,VALID,918.811,VALID,0,VALID,88.424,VALID,0,VALID,20.639,VALID,98,VALID,1.0125,
2012-01-09, 00:23:05,VALID,918.838,VALID,0,VALID,88.2029,VALID,0,VALID,20.6374,VALID,98,VALID,0.937891,
2012-01-09, 00:24:05,VALID,918.84,VALID,0,VALID,88.1267,VALID,0,VALID,20.6553,VALID,98,VALID,0.501562,
2012-01-09, 00:25:05,VALID,918.819,VALID,0,VALID,87.9971,VALID,0,VALID,20.6959,VALID,98,VALID,0.643359,
2012-01-09, 00:26:05,VALID,918.837,VALID,0,VALID,87.9056,VALID,0,VALID,20.7154,VALID,98,VALID,0.210156,
2012-01-09, 00:27:05,VALID,918.822,VALID,0,VALID,87.898,VALID,0,VALID,20.7755,VALID,99,VALID,0.780078,
2012-01-09, 00:28:05,VALID,918.84,VALID,0,VALID,87.9818,VALID,0,VALID,20.8145,VALID,99,VALID,0.746875,
2012-01-09, 00:29:05,VALID,918.839,VALID,0,VALID,88.0428,VALID,0,VALID,20.8129,VALID,101,VALID,0.721875,
2012-01-09, 00:30:05,VALID,918.837,VALID,0,VALID,88.2105,VALID,0,VALID,20.8145,VALID,131,VALID,0.483984,
2012-01-09, 00:31:05,VALID,918.832,VALID,0,VALID,88.3783,VALID,0,VALID,20.7739,VALID,131,VALID,0.93125,
2012-01-09, 00:32:05,VALID,918.794,VALID,0,VALID,88.4774,VALID,0,VALID,20.7755,VALID,131,VALID,1.04727,
2012-01-09, 00:33:05,VALID,918.821,VALID,0,VALID,88.5612,VALID,0,VALID,20.7739,VALID,131,VALID,0.789844,
2012-01-09, 00:34:05,VALID,918.798,VALID,0,VALID,88.6832,VALID,0,VALID,20.7544,VALID,131,VALID,0.723828,
2012-01-09, 00:35:05,VALID,918.778,VALID,0,VALID,88.5612,VALID,0,VALID,20.7934,VALID,146,VALID,0.951953,
2012-01-09, 00:36:05,VALID,918.793,VALID,0,VALID,88.3478,VALID,0,VALID,20.8535,VALID,170,VALID,1.37461,
2012-01-09, 00:37:05,VALID,918.786,VALID,0,VALID,88.1724,VALID,0,VALID,20.8519,VALID,170,VALID,0.7875,
2012-01-09, 00:38:05,VALID,918.79,VALID,0,VALID,87.6464,VALID,0,VALID,20.9105,VALID,174,VALID,1.56719,
2012-01-09, 00:39:05,VALID,918.784,VALID,0,VALID,87.6617,VALID,0,VALID,20.9511,VALID,174,VALID,0.632031,
2012-01-09, 00:40:05,VALID,918.8,VALID,0,VALID,87.593,VALID,0,VALID,20.969,VALID,174,VALID,0.662109,
2012-01-09, 00:41:05,VALID,918.763,VALID,0,VALID,87.4482,VALID,0,VALID,20.9901,VALID,174,VALID,1.08672,
2012-01-09, 00:42:05,VALID,918.755,VALID,0,VALID,87.25,VALID,0,VALID,20.9901,VALID,174,VALID,0.801953,
2012-01-09, 00:43:05,VALID,918.745,VALID,0,VALID,87.2729,VALID,0,VALID,21.0291,VALID,174,VALID,0.472656,
2012-01-09, 00:44:05,VALID,918.741,VALID,0,VALID,87.3339,VALID,0,VALID,21.047,VALID,174,VALID,0.412891,
2012-01-09, 00:45:05,VALID,918.704,VALID,0,VALID,87.1738,VALID,0,VALID,21.0486,VALID,174,VALID,1.27344,
2012-01-09, 00:46:05,VALID,918.729,VALID,0,VALID,87.189,VALID,0,VALID,21.047,VALID,174,VALID,1.10859,
2012-01-09, 00:47:05,VALID,918.699,VALID,0,VALID,87.2957,VALID,0,VALID,21.0275,VALID,174,VALID,0.658984,
2012-01-09, 00:48:05,VALID,918.668,VALID,0,VALID,87.0975,VALID,0,VALID,21.0275,VALID,158,VALID,1.40039,
2012-01-09, 00:49:05,VALID,918.646,VALID,0,VALID,87.2347,VALID,0,VALID,21.0275,VALID,161,VALID,0.756641,
2012-01-09, 00:50:05,VALID,918.659,VALID,0,VALID,87.189,VALID,0,VALID,21.0275,VALID,159,VALID,0.819141,
2012-01-09, 00:51:05,VALID,918.636,VALID,0,VALID,87.1433,VALID,0,VALID,21.0275,VALID,159,VALID,0.600781,
2012-01-09, 00:52:05,VALID,918.611,VALID,0,VALID,86.9451,VALID,0,VALID,21.047,VALID,169,VALID,0.914844,
2012-01-09, 00:53:05,VALID,918.607,VALID,0,VALID,87.1204,VALID,0,VALID,21.0876,VALID,169,VALID,1.02617,
2012-01-09, 00:54:05,VALID,918.582,VALID,0,VALID,87.1738,VALID,0,VALID,21.047,VALID,169,VALID,0.843359,
2012-01-09, 00:55:05,VALID,918.557,VALID,0,VALID,87.2424,VALID,0,VALID,21.0275,VALID,169,VALID,1.17344,
2012-01-09, 00:56:05,VALID,918.54,VALID,0,VALID,87.2881,VALID,0,VALID,21.0275,VALID,137,VALID,1.18477,
2012-01-09, 00:57:05,VALID,918.516,VALID,0,VALID,87.4253,VALID,0,VALID,21.008,VALID,141,VALID,0.884375,
2012-01-09, 00:58:05,VALID,918.512,VALID,0,VALID,87.4634,VALID,0,VALID,20.9901,VALID,133,VALID,1.1707,
2012-01-09, 00:59:05,VALID,918.503,VALID,0,VALID,87.4863,VALID,0,VALID,20.9901,VALID,137,VALID,1.03984,
2012-01-09, 01:00:05,VALID,918.485,VALID,0,VALID,87.6388,VALID,0,VALID,20.9901,VALID,137,VALID,1.17109,
2012-01-09, 01:01:05,VALID,918.451,VALID,0,VALID,87.7303,VALID,0,VALID,20.9479,VALID,112,VALID,1.32656,
2012-01-09, 01:02:05,VALID,918.423,VALID,0,VALID,87.837,VALID,0,VALID,20.9495,VALID,151,VALID,1.10195,
2012-01-09, 01:03:05,VALID,918.395,VALID,0,VALID,87.8599,VALID,0,VALID,20.93,VALID,158,VALID,0.855469,
2012-01-09, 01:04:05,VALID,918.386,VALID,0,VALID,87.8675,VALID,0,VALID,20.93,VALID,149,VALID,1.08828,
2012-01-09, 01:05:05,VALID,918.37,VALID,0,VALID,87.898,VALID,0,VALID,20.93,VALID,121,VALID,1.14219,
2012-01-09, 01:06:05,VALID,918.357,VALID,0,VALID,87.9666,VALID,0,VALID,20.9527,VALID,169,VALID,0.884375,
2012-01-09, 01:07:05,VALID,918.365,VALID,0,VALID,88.0809,VALID,0,VALID,20.9527,VALID,130,VALID,0.664063,
2012-01-09, 01:08:05,VALID,918.338,VALID,0,VALID,87.9666,VALID,0,VALID,20.9511,VALID,163,VALID,1.40937,
2012-01-09, 01:09:05,VALID,918.306,VALID,0,VALID,87.9666,VALID,0,VALID,20.891,VALID,149,VALID,1.11953,
2012-01-09, 01:10:05,VALID,918.309,VALID,0,VALID,87.9971,VALID,0,VALID,20.912,VALID,149,VALID,1.14023,
2012-01-09, 01:11:05,VALID,918.342,VALID,0,VALID,88.0809,VALID,0,VALID,20.9754,VALID,137,VALID,0.96875,
2012-01-09, 01:12:05,VALID,918.349,VALID,0,VALID,87.8675,VALID,0,VALID,20.8699,VALID,131,VALID,1.17773,
2012-01-09, 01:13:05,VALID,918.334,VALID,0,VALID,88.0886,VALID,0,VALID,20.8925,VALID,132,VALID,1.79336,
2012-01-09, 01:14:05,VALID,918.319,VALID,0,VALID,88.2868,VALID,0,VALID,20.8925,VALID,144,VALID,1.03594,
2012-01-09, 01:15:05,VALID,918.286,VALID,0,VALID,88.4392,VALID,0,VALID,20.8535,VALID,144,VALID,0.608594,
2012-01-09, 01:16:05,VALID,918.301,VALID,0,VALID,88.6375,VALID,0,VALID,20.834,VALID,122,VALID,0.700781,
2012-01-09, 01:17:05,VALID,918.275,VALID,0,VALID,88.7213,VALID,0,VALID,20.7934,VALID,128,VALID,1.19961,
2012-01-09, 01:18:05,VALID,918.287,VALID,0,VALID,88.6984,VALID,0,VALID,20.7739,VALID,143,VALID,1.07266,
2012-01-09, 01:19:05,VALID,918.27,VALID,0,VALID,88.6298,VALID,0,VALID,20.7513,VALID,134,VALID,0.663281,
2012-01-09, 01:20:05,VALID,918.298,VALID,0,VALID,88.6146,VALID,0,VALID,20.8356,VALID,110,VALID,1.43906,
2012-01-09, 01:21:05,VALID,918.252,VALID,0,VALID,87.6845,VALID,0,VALID,20.8309,VALID,122,VALID,2.01016,
2012-01-09, 01:22:05,VALID,918.254,VALID,0,VALID,87.654,VALID,0,VALID,20.9105,VALID,149,VALID,0.930078,
2012-01-09, 01:23:05,VALID,918.274,VALID,0,VALID,87.3339,VALID,0,VALID,20.9511,VALID,136,VALID,1.42695,
2012-01-09, 01:24:05,VALID,918.265,VALID,0,VALID,87.3186,VALID,0,VALID,20.93,VALID,136,VALID,1.31875,
2012-01-09, 01:25:05,VALID,918.259,VALID,0,VALID,87.3643,VALID,0,VALID,20.9316,VALID,136,VALID,1.16758,
2012-01-09, 01:26:05,VALID,918.209,VALID,0,VALID,87.3872,VALID,0,VALID,20.9089,VALID,119,VALID,1.18789,
2012-01-09, 01:27:05,VALID,918.211,VALID,0,VALID,87.0442,VALID,0,VALID,20.9511,VALID,113,VALID,2.48555,
2012-01-09, 01:28:05,VALID,918.191,VALID,0,VALID,87.4253,VALID,0,VALID,20.9089,VALID,110,VALID,1.02305,
2012-01-09, 01:29:05,VALID,918.185,VALID,0,VALID,87.3491,VALID,0,VALID,20.891,VALID,110,VALID,1.49219,
2012-01-09, 01:30:05,VALID,918.189,VALID,0,VALID,87.2957,VALID,0,VALID,20.9105,VALID,110,VALID,1.46406,
2012-01-09, 01:31:05,VALID,918.176,VALID,0,VALID,87.3034,VALID,0,VALID,20.8699,VALID,110,VALID,1.03242,
2012-01-09, 01:32:05,VALID,918.183,VALID,0,VALID,87.7226,VALID,0,VALID,20.8894,VALID,110,VALID,0.421875,
2012-01-09, 01:33:05,VALID,918.142,VALID,0,VALID,87.5321,VALID,0,VALID,20.8714,VALID,117,VALID,1.73789,
2012-01-09, 01:34:05,VALID,918.155,VALID,0,VALID,87.5778,VALID,0,VALID,20.873,VALID,137,VALID,1.09219,
2012-01-09, 01:35:05,VALID,918.147,VALID,0,VALID,87.3948,VALID,0,VALID,20.873,VALID,124,VALID,1.30547,
2012-01-09, 01:36:05,VALID,918.12,VALID,0,VALID,87.1356,VALID,0,VALID,20.8925,VALID,115,VALID,1.45117,
2012-01-09, 01:37:05,VALID,918.102,VALID,0,VALID,87.0823,VALID,0,VALID,20.912,VALID,108,VALID,1.53281,
2012-01-09, 01:38:04,VALID,918.071,VALID,0,VALID,87.2347,VALID,0,VALID,20.8925,VALID,114,VALID,1.54492,
2012-01-09, 01:39:04,VALID,918.06,VALID,0,VALID,87.1814,VALID,0,VALID,20.8504,VALID,138,VALID,1.49023,
2012-01-09, 01:40:04,VALID,918.044,VALID,0,VALID,87.1204,VALID,0,VALID,20.891,VALID,111,VALID,1.67969,
2012-01-09, 01:41:04,VALID,918.027,VALID,0,VALID,87.6464,VALID,0,VALID,20.8925,VALID,116,VALID,1.58633,
2012-01-09, 01:42:04,VALID,917.959,VALID,0,VALID,87.4787,VALID,0,VALID,20.8746,VALID,132,VALID,1.91133,
2012-01-09, 01:43:04,VALID,917.962,VALID,0,VALID,87.6769,VALID,0,VALID,20.8324,VALID,120,VALID,1.49883,
2012-01-09, 01:44:04,VALID,917.954,VALID,0,VALID,87.5016,VALID,0,VALID,20.873,VALID,126,VALID,1.51094,
2012-01-09, 01:45:04,VALID,917.949,VALID,0,VALID,87.6007,VALID,0,VALID,20.8519,VALID,127,VALID,1.37383,
2012-01-09, 01:46:04,VALID,917.919,VALID,0,VALID,87.7836,VALID,0,VALID,20.8309,VALID,137,VALID,1.54805,
2012-01-09, 01:47:04,VALID,917.909,VALID,0,VALID,87.433,VALID,0,VALID,20.8925,VALID,150,VALID,2.09258,
2012-01-09, 01:48:04,VALID,917.905,VALID,0,VALID,87.311,VALID,0,VALID,20.873,VALID,140,VALID,1.80625,
2012-01-09, 01:49:04,VALID,917.922,VALID,0,VALID,86.8536,VALID,0,VALID,20.9316,VALID,135,VALID,2.45352,
2012-01-09, 01:50:04,VALID,917.887,VALID,0,VALID,86.9222,VALID,0,VALID,20.8894,VALID,135,VALID,1.60039,
2012-01-09, 01:51:04,VALID,917.898,VALID,0,VALID,87.2729,VALID,0,VALID,20.912,VALID,142,VALID,1.14414,
2012-01-09, 01:52:04,VALID,917.914,VALID,0,VALID,87.4177,VALID,0,VALID,20.8699,VALID,116,VALID,1.53203,
2012-01-09, 01:53:04,VALID,917.899,VALID,0,VALID,87.4406,VALID,0,VALID,20.8519,VALID,130,VALID,1.87852,
2012-01-09, 01:54:04,VALID,917.878,VALID,0,VALID,87.3567,VALID,0,VALID,20.8519,VALID,138,VALID,1.39609,
2012-01-09, 01:55:04,VALID,917.857,VALID,0,VALID,87.7531,VALID,0,VALID,20.873,VALID,138,VALID,0.629687,
2012-01-09, 01:56:04,VALID,917.839,VALID,0,VALID,87.6235,VALID,0,VALID,20.8113,VALID,138,VALID,1.16328,
2012-01-09, 01:57:04,VALID,917.817,VALID,0,VALID,87.5473,VALID,0,VALID,20.8129,VALID,178,VALID,1.56719,
2012-01-09, 01:58:04,VALID,917.836,VALID,0,VALID,87.5092,VALID,0,VALID,20.8113,VALID,125,VALID,1.19297,
2012-01-09, 01:59:04,VALID,917.814,VALID,0,VALID,87.3491,VALID,0,VALID,20.8324,VALID,145,VALID,1.11016,
2012-01-09, 02:00:04,VALID,917.809,VALID,0,VALID,87.9132,VALID,0,VALID,20.8535,VALID,149,VALID,0.640234,
2012-01-09, 02:01:04,VALID,917.818,VALID,0,VALID,87.7074,VALID,0,VALID,20.8535,VALID,149,VALID,0.7875,
2012-01-09, 02:02:04,VALID,917.789,VALID,0,VALID,87.654,VALID,0,VALID,20.8324,VALID,149,VALID,0.667578,
2012-01-09, 02:03:04,VALID,917.78,VALID,0,VALID,88.02,VALID,0,VALID,20.7918,VALID,149,VALID,0.499609,
2012-01-09, 02:04:04,VALID,917.769,VALID,0,VALID,87.9437,VALID,0,VALID,20.8746,VALID,149,VALID,0.605469,
2012-01-09, 02:05:04,VALID,917.732,VALID,0,VALID,88.0657,VALID,0,VALID,20.7934,VALID,149,VALID,0.578516,
2012-01-09, 02:06:04,VALID,917.726,VALID,0,VALID,88.2105,VALID,0,VALID,20.8145,VALID,149,VALID,0.71875,
2012-01-09, 02:07:04,VALID,917.709,VALID,0,VALID,88.3173,VALID,0,VALID,20.7755,VALID,137,VALID,0.957422,
2012-01-09, 02:08:04,VALID,917.695,VALID,0,VALID,88.3173,VALID,0,VALID,20.7138,VALID,134,VALID,1.13867,
2012-01-09, 02:09:04,VALID,917.707,VALID,0,VALID,88.7061,VALID,0,VALID,20.7365,VALID,160,VALID,0.501172,
2012-01-09, 02:10:04,VALID,917.696,VALID,0,VALID,88.6832,VALID,0,VALID,20.7365,VALID,138,VALID,0.665234,
2012-01-09, 02:11:04,VALID,917.685,VALID,0,VALID,88.6146,VALID,0,VALID,20.6553,VALID,152,VALID,1.18789,
2012-01-09, 02:12:04,VALID,917.633,VALID,0,VALID,88.4164,VALID,0,VALID,20.7365,VALID,139,VALID,0.822656,
2012-01-09, 02:13:04,VALID,917.623,VALID,0,VALID,88.5079,VALID,0,VALID,20.7576,VALID,139,VALID,0.796484,
2012-01-09, 02:14:04,VALID,917.611,VALID,0,VALID,88.2715,VALID,0,VALID,20.6943,VALID,139,VALID,1.53398,
2012-01-09, 02:15:04,VALID,917.555,VALID,0,VALID,88.2334,VALID,0,VALID,20.7755,VALID,127,VALID,1.17383,
2012-01-09, 02:16:04,VALID,917.576,VALID,0,VALID,88.1496,VALID,0,VALID,20.7349,VALID,153,VALID,1.13711,
2012-01-09, 02:17:04,VALID,917.558,VALID,0,VALID,88.1724,VALID,0,VALID,20.7544,VALID,134,VALID,1.08555,
2012-01-09, 02:18:04,VALID,917.533,VALID,0,VALID,88.1877,VALID,0,VALID,20.7544,VALID,128,VALID,1.1207,
2012-01-09, 02:19:04,VALID,917.47,VALID,0,VALID,88.2105,VALID,0,VALID,20.756,VALID,136,VALID,1.82656,
2012-01-09, 02:20:04,VALID,917.469,VALID,0,VALID,88.5765,VALID,0,VALID,20.7349,VALID,144,VALID,1.03672,
2012-01-09, 02:21:04,VALID,917.423,VALID,0,VALID,88.7594,VALID,0,VALID,20.6959,VALID,154,VALID,1.20039,
2012-01-09, 02:22:04,VALID,917.399,VALID,0,VALID,88.889,VALID,0,VALID,20.6764,VALID,163,VALID,1.10234,
2012-01-09, 02:23:04,VALID,917.384,VALID,0,VALID,88.9043,VALID,0,VALID,20.6163,VALID,152,VALID,1.2,
2012-01-09, 02:24:04,VALID,917.331,VALID,0,VALID,88.9119,VALID,0,VALID,20.678,VALID,135,VALID,1.74258,
2012-01-09, 02:25:04,VALID,917.313,VALID,0,VALID,88.9271,VALID,0,VALID,20.6764,VALID,149,VALID,1.04336,
2012-01-09, 02:26:04,VALID,917.323,VALID,0,VALID,88.889,VALID,0,VALID,20.699,VALID,129,VALID,1.13555,
2012-01-09, 02:27:04,VALID,917.318,VALID,0,VALID,88.95,VALID,0,VALID,20.6569,VALID,140,VALID,1.23789,
2012-01-09, 02:28:04,VALID,917.272,VALID,0,VALID,89.1025,VALID,0,VALID,20.5937,VALID,134,VALID,1.40234,
2012-01-09, 02:29:04,VALID,917.287,VALID,0,VALID,89.3007,VALID,0,VALID,20.5968,VALID,130,VALID,0.738672,
2012-01-09, 02:30:04,VALID,917.244,VALID,0,VALID,89.3541,VALID,0,VALID,20.6179,VALID,130,VALID,1.11289,
2012-01-09, 02:31:04,VALID,917.248,VALID,0,VALID,89.2626,VALID,0,VALID,20.6179,VALID,143,VALID,1.55352,
2012-01-09, 02:32:04,VALID,917.22,VALID,0,VALID,89.255,VALID,0,VALID,20.6179,VALID,139,VALID,1.10664,
2012-01-09, 02:33:04,VALID,917.19,VALID,0,VALID,89.3541,VALID,0,VALID,20.639,VALID,140,VALID,1.10195,
2012-01-09, 02:34:04,VALID,917.151,VALID,0,VALID,89.3998,VALID,0,VALID,20.5789,VALID,136,VALID,1.23633,
2012-01-09, 02:35:04,VALID,917.16,VALID,0,VALID,89.5142,VALID,0,VALID,20.5999,VALID,137,VALID,0.589063,
2012-01-09, 02:36:04,VALID,917.127,VALID,0,VALID,89.6209,VALID,0,VALID,20.5789,VALID,136,VALID,0.681641,
2012-01-09, 02:37:04,VALID,917.114,VALID,0,VALID,89.4684,VALID,0,VALID,20.6405,VALID,147,VALID,1.2043,
2012-01-09, 02:38:04,VALID,917.082,VALID,0,VALID,89.4608,VALID,0,VALID,20.5984,VALID,140,VALID,0.845703,
2012-01-09, 02:39:04,VALID,917.079,VALID,0,VALID,89.4455,VALID,0,VALID,20.6226,VALID,140,VALID,0.814844,
2012-01-09, 02:40:04,VALID,917.042,VALID,0,VALID,89.1863,VALID,0,VALID,20.6194,VALID,160,VALID,1.24648,
2012-01-09, 02:41:04,VALID,917.02,VALID,0,VALID,88.9271,VALID,0,VALID,20.6194,VALID,133,VALID,2.43672,
2012-01-09, 02:42:04,VALID,916.976,VALID,0,VALID,89.133,VALID,0,VALID,20.6194,VALID,125,VALID,1.40937,
2012-01-09, 02:43:04,VALID,916.952,VALID,0,VALID,89.3236,VALID,0,VALID,20.5804,VALID,129,VALID,1.8832,
2012-01-09, 02:44:04,VALID,916.944,VALID,0,VALID,89.537,VALID,0.107441,VALID,20.5609,VALID,135,VALID,1.51875,
2012-01-09, 02:45:04,VALID,916.975,VALID,0,VALID,89.6285,VALID,0,VALID,20.4782,VALID,135,VALID,0.81875,
2012-01-09, 02:46:04,VALID,916.942,VALID,0,VALID,89.6056,VALID,0.107441,VALID,20.4993,VALID,135,VALID,1.09219,
2012-01-09, 02:47:04,VALID,916.969,VALID,0,VALID,89.5599,VALID,0,VALID,20.4993,VALID,126,VALID,1.33828,
2012-01-09, 02:48:04,VALID,916.947,VALID,0,VALID,89.3998,VALID,0,VALID,20.5609,VALID,134,VALID,1.30352,
2012-01-09, 02:49:04,VALID,916.951,VALID,0,VALID,89.2702,VALID,0,VALID,20.5383,VALID,129,VALID,1.36758,
2012-01-09, 02:50:04,VALID,916.938,VALID,0,VALID,89.3388,VALID,0.107441,VALID,20.5172,VALID,130,VALID,1.30938,
2012-01-09, 02:51:04,VALID,916.951,VALID,0,VALID,89.2702,VALID,0,VALID,20.5609,VALID,135,VALID,1.47109,
2012-01-09, 02:52:04,VALID,916.952,VALID,0,VALID,89.133,VALID,0,VALID,20.5383,VALID,135,VALID,0.967969,
2012-01-09, 02:53:04,VALID,916.944,VALID,0,VALID,89.1101,VALID,0.107441,VALID,20.5367,VALID,124,VALID,1.5,
2012-01-09, 02:54:04,VALID,916.945,VALID,0,VALID,89.1711,VALID,0.107441,VALID,20.5594,VALID,124,VALID,0.799609,
2012-01-09, 02:55:04,VALID,916.943,VALID,0,VALID,89.1787,VALID,0,VALID,20.5609,VALID,124,VALID,1.35742,
2012-01-09, 02:56:04,VALID,916.927,VALID,0,VALID,89.2473,VALID,0.107441,VALID,20.5188,VALID,125,VALID,1.24688,
2012-01-09, 02:57:04,VALID,916.924,VALID,0,VALID,89.3541,VALID,0,VALID,20.4993,VALID,125,VALID,1.56211,
2012-01-09, 02:58:04,VALID,916.92,VALID,0,VALID,89.3846,VALID,0,VALID,20.5399,VALID,133,VALID,1.69219,
2012-01-09, 02:59:04,VALID,916.901,VALID,0,VALID,89.4227,VALID,0,VALID,20.4993,VALID,133,VALID,1.12617,
2012-01-09, 03:00:04,VALID,916.893,VALID,0,VALID,89.5065,VALID,0,VALID,20.5414,VALID,125,VALID,1.94922,
2012-01-09, 03:01:04,VALID,916.885,VALID,0,VALID,89.6056,VALID,0,VALID,20.5641,VALID,121,VALID,1.50977,
2012-01-09, 03:02:04,VALID,916.845,VALID,0,VALID,89.598,VALID,0,VALID,20.4829,VALID,121,VALID,1.56211,
2012-01-09, 03:03:04,VALID,916.845,VALID,0,VALID,89.6742,VALID,0,VALID,20.4408,VALID,142,VALID,1.36875,
2012-01-09, 03:04:04,VALID,916.843,VALID,0,VALID,89.7581,VALID,0,VALID,20.4634,VALID,136,VALID,1.10664,
2012-01-09, 03:05:04,VALID,916.825,VALID,0,VALID,89.9487,VALID,0,VALID,20.4259,VALID,136,VALID,0.996875,
2012-01-09, 03:06:04,VALID,916.836,VALID,0,VALID,90.1774,VALID,0,VALID,20.3838,VALID,136,VALID,1.42422,
2012-01-09, 03:07:04,VALID,916.827,VALID,0,VALID,90.1164,VALID,0,VALID,20.4049,VALID,119,VALID,1.28711,
2012-01-09, 03:08:04,VALID,916.782,VALID,0,VALID,90.0935,VALID,0,VALID,20.4876,VALID,149,VALID,1.52578,
2012-01-09, 03:09:04,VALID,916.755,VALID,0,VALID,90.0554,VALID,0,VALID,20.4439,VALID,164,VALID,1.03789,
2012-01-09, 03:10:04,VALID,916.787,VALID,0,VALID,90.0783,VALID,0,VALID,20.4665,VALID,143,VALID,1.38359,
2012-01-09, 03:11:04,VALID,916.784,VALID,0,VALID,90.1088,VALID,0,VALID,20.4033,VALID,144,VALID,1.03984,
2012-01-09, 03:12:04,VALID,916.782,VALID,0,VALID,90.1393,VALID,0,VALID,20.4049,VALID,120,VALID,0.902734,
2012-01-09, 03:13:04,VALID,916.756,VALID,0,VALID,90.2155,VALID,0,VALID,20.3854,VALID,120,VALID,0.915234,
2012-01-09, 03:14:04,VALID,916.774,VALID,0,VALID,90.3299,VALID,0,VALID,20.3659,VALID,121,VALID,0.792578,
2012-01-09, 03:15:04,VALID,916.749,VALID,0,VALID,90.429,VALID,0,VALID,20.3464,VALID,147,VALID,1.03984,
2012-01-09, 03:16:04,VALID,916.758,VALID,0,VALID,90.5204,VALID,0,VALID,20.2863,VALID,148,VALID,1.01172,
2012-01-09, 03:17:04,VALID,916.721,VALID,0,VALID,90.4747,VALID,0,VALID,20.2863,VALID,138,VALID,1.57773,
2012-01-09, 03:18:04,VALID,916.748,VALID,0,VALID,90.368,VALID,0,VALID,20.2458,VALID,142,VALID,1.43828,
2012-01-09, 03:19:04,VALID,916.716,VALID,0,VALID,90.3832,VALID,0,VALID,20.2863,VALID,142,VALID,1.22656,
2012-01-09, 03:20:04,VALID,916.752,VALID,0,VALID,90.3527,VALID,0,VALID,20.2879,VALID,142,VALID,0.789453,
2012-01-09, 03:21:04,VALID,916.72,VALID,0,VALID,90.2536,VALID,0,VALID,20.2653,VALID,142,VALID,1.22891,
2012-01-09, 03:22:04,VALID,916.728,VALID,0,VALID,90.063,VALID,0,VALID,20.2863,VALID,142,VALID,1.15391,
2012-01-09, 03:23:04,VALID,916.708,VALID,0,VALID,89.9411,VALID,0,VALID,20.2458,VALID,142,VALID,1.12422,
2012-01-09, 03:24:04,VALID,916.682,VALID,0,VALID,90.0173,VALID,0,VALID,20.2263,VALID,142,VALID,1.13867,
2012-01-09, 03:25:04,VALID,916.648,VALID,0,VALID,90.0707,VALID,0,VALID,20.2894,VALID,142,VALID,0.897656,
2012-01-09, 03:26:04,VALID,916.613,VALID,0,VALID,90.1012,VALID,0,VALID,20.2504,VALID,142,VALID,1.12227,
2012-01-09, 03:27:04,VALID,916.606,VALID,0,VALID,90.1774,VALID,0,VALID,20.2278,VALID,142,VALID,1.42891,
2012-01-09, 03:28:04,VALID,916.604,VALID,0,VALID,90.1698,VALID,0,VALID,20.2489,VALID,142,VALID,1.07422,
2012-01-09, 03:29:04,VALID,916.6,VALID,0,VALID,90.185,VALID,0,VALID,20.2473,VALID,142,VALID,1.21641,
2012-01-09, 03:30:04,VALID,916.582,VALID,0,VALID,90.2536,VALID,0,VALID,20.2699,VALID,142,VALID,1.30234,
2012-01-09, 03:31:04,VALID,916.582,VALID,0,VALID,90.246,VALID,0,VALID,20.2489,VALID,141,VALID,0.975781,
2012-01-09, 03:32:04,VALID,916.588,VALID,0,VALID,90.2231,VALID,0,VALID,20.1888,VALID,141,VALID,1.00625,
2012-01-09, 03:33:04,VALID,916.594,VALID,0,VALID,90.3604,VALID,0,VALID,20.1678,VALID,130,VALID,1.45391,
2012-01-09, 03:34:04,VALID,916.6,VALID,0,VALID,90.4518,VALID,0,VALID,20.1903,VALID,131,VALID,1.32031,
2012-01-09, 03:35:04,VALID,916.614,VALID,0,VALID,90.4061,VALID,0,VALID,20.3135,VALID,139,VALID,0.980859,
2012-01-09, 03:36:04,VALID,916.633,VALID,0,VALID,90.4213,VALID,0,VALID,20.2068,VALID,136,VALID,1.49492,
2012-01-09, 03:37:04,VALID,916.618,VALID,0,VALID,90.4366,VALID,0,VALID,20.2263,VALID,135,VALID,1.38047,
2012-01-09, 03:38:04,VALID,916.567,VALID,0,VALID,90.3756,VALID,0,VALID,20.3315,VALID,135,VALID,1.43945,
2012-01-09, 03:39:04,VALID,916.576,VALID,0,VALID,90.2612,VALID,0,VALID,20.2458,VALID,140,VALID,1.08242,
2012-01-09, 03:40:04,VALID,916.557,VALID,0,VALID,90.1393,VALID,0,VALID,20.2473,VALID,125,VALID,1.29688,
2012-01-09, 03:41:04,VALID,916.558,VALID,0,VALID,90.0935,VALID,0,VALID,20.3284,VALID,133,VALID,1.34805,
2012-01-09, 03:42:04,VALID,916.559,VALID,0,VALID,90.0402,VALID,0,VALID,20.2653,VALID,145,VALID,1.33125,
2012-01-09, 03:43:04,VALID,916.564,VALID,0,VALID,90.0097,VALID,0,VALID,20.2637,VALID,131,VALID,0.916406,
2012-01-09, 03:44:04,VALID,916.561,VALID,0,VALID,90.0021,VALID,0,VALID,20.3479,VALID,137,VALID,0.475391,
2012-01-09, 03:45:04,VALID,916.559,VALID,0,VALID,90.0173,VALID,0,VALID,20.3253,VALID,158,VALID,0.620703,